Flag for China Weather past 2 weeks in Chengdu, Sichuan, China

Now
41 °F

Passing clouds.


Feels Like: 41 °F
Forecast: 38 / 51 °F
Wind: 1 mph from North

Location: Chengdu Airport

Current Time: Feb 1, 2015 at 11:40:31 PM

Latest Report: Feb 1, 2015 at 11:00 PM


Visibility: 4 mi

Pressure: 30.33 "Hg

Humidity: 81%

Dew point: 36 °F

Location of ChengduLocation

Historic Weather in Chengdu — Graph

°F

Chengdu temperature yesterday

Maximum temperature yesterday: 39 °F (at 12:00 AM)
Minimum temperature yesterday: 37 °F (at 5:00 AM)
Average temperature yesterday: 39 °F

Past Weeks' High & Low Weather Summary

 TemperatureHumidityPressure
High63 °F (Jan 21, 4:00 PM)93% (Jan 20, 4:00 AM)30.48 "Hg (Jan 20, 4:00 AM)
Low37 °F (Jan 21, 8:00 AM)31% (Jan 21, 3:00 PM)29.80 "Hg (Jan 23, 4:00 PM)
Average48 °F73%30.16 "Hg
* Reported Jan 17 10:00 PM — Feb 1 10:00 PM, Chengdu, Weather by CustomWeather, © 2014

Note: Actual official high and low records may vary slightly from our data, if they occured in-between our weather recording intervals... More about our weather records

Advertising

Chengdu weather history for previous 24 hours

 ConditionsComfort  
Time TempWeatherWind HumidityBarometerVisibility
10:00 PM
Feb 1
43 °FPassing clouds.1 mph71%30.30 "Hg4 mi
9:00 PM43 °FPartly cloudy.3 mph76%30.30 "Hg4 mi
8:00 PM43 °FPartly cloudy.3 mph71%30.30 "Hg4 mi
7:00 PM41 °FPassing clouds.1 mph81%30.27 "Hg5 mi
6:00 PM43 °FBroken clouds.3 mph71%30.24 "Hg4 mi
5:00 PM43 °FBroken clouds.3 mph66%30.24 "Hg5 mi
4:00 PM43 °FBroken clouds.6 mph71%30.24 "Hg5 mi
3:00 PM43 °FBroken clouds.3 mph71%30.24 "Hg4 mi
2:00 PM43 °FBroken clouds.1 mph76%30.27 "Hg5 mi
1:00 PM41 °FLight rain. Broken clouds.1 mph81%30.33 "Hg4 mi
12:00 PM41 °FLight rain. Fog.1 mph81%30.36 "Hg3 mi
11:00 AM41 °FFog.1 mph87%30.39 "Hg3 mi
10:00 AM39 °FLight rain. Fog.No wind93%30.39 "Hg2 mi
9:00 AM39 °FLight rain. Fog.No wind87%30.39 "Hg1 mi
8:00 AM39 °FLight rain. Fog.No wind87%30.36 "Hg2 mi
7:00 AM39 °FLight rain. Fog.1 mph87%30.36 "Hg2 mi
6:00 AM37 °FLight rain. Fog.1 mph93%30.36 "Hg2 mi
5:00 AM37 °FLight rain. Fog.1 mph93%30.36 "Hg2 mi
4:00 AM39 °FLight rain. Fog.1 mph87%30.39 "Hg2 mi
3:00 AM39 °FLight rain. Fog.3 mph87%30.39 "Hg2 mi
2:00 AM39 °FLight rain. Fog.3 mph87%30.39 "Hg2 mi
1:00 AM39 °FLight rain. Fog.3 mph87%30.39 "Hg2 mi
12:00 AM39 °FLight rain. Fog.3 mph87%30.39 "Hg2 mi
11:00 PM
Jan 31
39 °FLight rain. Fog.3 mph87%30.39 "Hg2 mi
Weather by CustomWeather, © 2014

See weather overviewHow to use our weather pages